sat.trackr.live / text

‹ back to catalog

STARLINK-32516

NORAD 62176 · 2024-225P

PAYLOAD ACTIVE UNKNOWN

§ Identity

Operator
Country
US
Launch date
2024-11-30
Launch site
AFWTR
Launch vehicle
Mass (kg)
RCS (m²)

Purposes: comms

External: N2YO · Heavens-Above · Gunter

§ Orbital elements

Epoch: 2026-09-21T18:31:42.654144Z

Period
96.10 min
Inclination
70.0015°
Eccentricity
0.0003415
Mean motion
14.98408188 rev/d
Perigee alt
569.4 km
Apogee alt
574.2 km
Semi-major
6,950.0 km
B*
2.0220e-3
RAAN
30.1628°
Arg perigee
261.0738°
Mean anomaly
99.0034°
Rev number
9,924

§ Raw data

STARLINK-325161 62176U 24225P   26264.77202146  .00024166  00000+0  20220-2 0  99922 62176  70.0015  30.1628 0003415 261.0738  99.0034 14.98408188 99247

JSON: /api/v1/satellites/62176 · /tle

For live sub-satellite position, see the globe view (requires WebGL).

§ Visibility from observer

Set your observer location to see the next 7 days of passes ≥ 10°. The values pass through the URL so the page stays shareable.

No JS? Fill the form by hand. The geolocation button needs JavaScript.